Other Public Products
Issued by NWS Grand Forks, ND

Home | Current Version | Previous Version | Graphics & Text | Print | Product List | Glossary On
Versions: 1 2 3 4 5 6 7 8 9 10 11 12 13 14 15 16 17 18 19 20 21 22 23 24 25 26 27 28 29 30 31 32 33 34 35 36 37 38 39 40 41 42 43 44 45 46 47 48 49 50
000
FPUS83 KFGF 301710
OPUFGF
PRAIRIE TO PINES WEATHER ROUNDUP
NATIONAL WEATHER SERVICE EASTERN NORTH DAKOTA/GRAND FORKS ND
1200 PM CDT MON MAR 30 2015

 **SATELLITE DATA USED TO AUGMENT SKY COVER AT AUTOMATED STATIONS**
 *****  WEATHER ACROSS EASTERN NORTH DAKOTA  *****

CITY           SKY/WX    TMP DP  RH WIND       PRES   REMARKS
GRAND FORKS    LGT RAIN  43  37  79 NE6       29.82R
GRAND FORKS AF CLOUDY    44  37  76 N10       29.87R
GRAND CITY NWS   N/A     41 N/A N/A NE5         N/A
BUXTON         NOT AVBL
DEVILS LAKE    MOSUNNY   46  37  71 N5        29.81R
FARGO          CLOUDY    51  35  54 SE13      29.80F
WAHPETON ARPT  CLOUDY    48  32  53 E10       29.83S
$$

 *****  WEATHER ACROSS CENTRAL AND WESTERN NORTH DAKOTA  *****

CITY           SKY/WX    TMP DP  RH WIND       PRES   REMARKS
JAMESTOWN      SUNNY     59  35  40 W17G23    29.79R
BISMARCK       SUNNY     60  36  40 NW17G26   29.88R
MINOT          SUNNY     58  37  45 W22       29.86R
MINOT AFB      SUNNY     55  42  60 NW17      29.85R
GARRISON         N/A     58  39  49 NW20      29.87R
WILLISTON      MOSUNNY   60  36  40 NW16      29.95R
DICKINSON      SUNNY     60  35  39 NW21G31   29.94R
HETTINGER      MOSUNNY   62  32  32 NW22G37   29.97R
$$

 *****  OTHER OBSERVATIONS NORTHEAST NORTH DAKOTA  *****

CITY           SKY/WX    TMP DP  RH WIND       PRES   REMARKS
WALHALLA         N/A     41  41 100 S9        29.85F
LANGDON        NOT AVBL
CAVALIER         N/A     39  36  87 S5        29.87F
GRAFTON        NOT AVBL
CANDO          NOT AVBL
FORT TOTTEN    NOT AVBL
ROLLA          FAIR      45  36  70 E9        29.84R
RUGBY          NOT AVBL
 ***** THE ABOVE OBSERVATIONS ARE NON NWS ARE NOT QUALITY
        CONTROLLED AND MAY MIS-REPORT RAIN FOR SNOW...
$$

 *****  OTHER OBSERVATIONS SOUTHEAST NORTH DAKOTA *****

CITY           SKY/WX    TMP DP  RH WIND       PRES   REMARKS
COOPERSTOWN    NOT AVBL
VALLEY CITY    FAIR      52  36  54 W8        29.80R
OAKES            N/A     59  39  47 W12       29.80F
GWINNER        PTSUNNY   55  39  54 W9          N/A
SHEYENNE NWR     N/A     53  34  48 SW3       29.95S
BUFFALO        NOT AVBL
WYNDMERE       NOT AVBL
 ***** THE ABOVE OBSERVATIONS ARE NON NWS ARE NOT QUALITY
       CONTROLLED AND MAY MIS-REPORT RAIN FOR SNOW...
$$

  *****  WEATHER ACROSS NORTHERN MINNESOTA  *****

CITY           SKY/WX    TMP DP  RH WIND       PRES   REMARKS
FLAG ISLAND    PTSUNNY   34  28  80 E6        29.84S
WARROAD        CLOUDY    43  34  70 SW7       29.86S
ROSEAU         CLOUDY    41  34  75 SW9       29.85S
HALLOCK        LGT RAIN  41  37  87 NW6       29.87R
THF RVR FALLS  CLOUDY    43  32  65 E10       29.83F
HALSTAD        NOT AVBL
FOSSTON        RAIN      39  34  81 E5        29.83F
BAUDETTE       CLOUDY    43  31  62 S8        29.84S
WASKISH        CLOUDY    41  30  65 CALM      29.86F
CROOKSTON      PTSUNNY   46  34  61 E9        29.82F
$$
  *****  WEATHER ACROSS CENTRAL AND WEST MINNESOTA  *****

CITY           SKY/WX    TMP DP  RH WIND       PRES   REMARKS
BEMIDJI        CLOUDY    42  32  68 E6        29.86F
PARK RAPIDS    CLOUDY    43  33  68 E6        29.86S
WADENA         CLOUDY    50  30  46 E12       29.86S
DETROIT LAKES  CLOUDY    45  32  61 E10       29.84F
MOORHEAD       CLOUDY    52  36  54 SE13      29.82F
FERGUS FALLS   CLOUDY    50  28  43 SE10      29.86F
ELBOW LAKE     CLOUDY    46  32  57 SE8       29.84S
MORRIS MN      MOSUNNY   54  37  54 SE9       29.83F
STAPLES        CLOUDY    50  27  40 E8        29.86F
WHEATON        MOSUNNY   57  34  41 W5        29.83F
$$
  *****  WEATHER ELSEWHERE ACROSS MINNESOTA  *****

CITY           SKY/WX    TMP DP  RH WIND       PRES   REMARKS
DULUTH         CLOUDY    49  22  34 W7        29.90F
INTRNTL FALLS  PTSUNNY   46  23  40 CALM      29.86F
ELY            MOSUNNY   46  19  34 NW7       29.87F
CLOQUET        CLOUDY    45  23  42 S5        29.91F
BRAINERD       CLOUDY    44  33  65 E7        29.91S
HIBBING        CLOUDY    47  21  35 CALM      29.88F
ALEXANDRIA     CLOUDY    46  31  55 SE10      29.86S
SAINT CLOUD    CLOUDY    45  33  63 E7        29.89F
MINNEAPOLIS    CLOUDY    46  30  53 SE5       29.94F
$$

  *****  WEATHER ACROSS SOUTH DAKOTA  *****

CITY           SKY/WX    TMP DP  RH WIND       PRES   REMARKS
SIOUX FALLS    PTSUNNY   61  23  23 SW10      29.90F
BROOKINGS      NOT AVBL
WATERTOWN      MOSUNNY   63  28  26 W15       29.85F
HURON          MOSUNNY   69  28  21 W15G22    29.88F
SISSETON         N/A     64  32  30 W17       29.79F
ABERDEEN       SUNNY     67  32  27 NW18      29.83F
MITCHELL       MOSUNNY   70  28  21 W16       29.90F
PIERRE         PTSUNNY   63  31  30 NW20G29   29.94S
MOBRIDGE       MOSUNNY   64  34  32 NW17      29.87S
RAPID CITY     PTSUNNY   62  29  28 N25G33    30.07R
$$

  *****  SOME WEATHER IN NEARBY STATES *****

CITY           SKY/WX    TMP DP  RH WIND       PRES   REMARKS
GLASGOW MT     SUNNY     56  34  43 NW8       30.02R
GREAT FALLS MT CLOUDY    59  23  25 SW12      30.08R
CHEYENNE WY    SUNNY     60  17  18 NW18G30   30.20R
SCOTTSBLUFF NE SUNNY     63  26  24 W9G20     30.13R
OMAHA NE       PTSUNNY   67  27  22 SW14G23   30.04F
DES MOINES IA  CLOUDY    68  21  16 W20G28    30.04F
DAVENPORT IA     N/A     62  30  29 W23G29    30.05F
CHICAGO IL     PTSUNNY   56  27  32 W14       30.03F
EAU CLAIRE WI  LGT RAIN  45  33  63 N6        29.97S
LA CROSSE WI   CLOUDY    51  27  39 NW6       29.98S
$$

  *****  SOME NATIONAL WEATHER *****

CITY           SKY/WX    TMP DP  RH WIND       PRES   REMARKS
LA GUARDIA NY  PTSUNNY   45  30  55 SW14G22   29.81F
RALEIGH NC     PTSUNNY   48  44  86 W14       30.04F
ATLANTA GA     CLOUDY    60  55  83 NW10      30.17S
NEW ORLEANS LA PTSUNNY   78  62  57 W14       30.24F
OKLAHOMA CITY  MOSUNNY   70  43  37 S10       30.21F
ALBUQUERQUE NM MOSUNNY   64  26  23 W3        30.29S
SALT LAKE CITY MOSUNNY   59  25  27 CALM      30.24R
LOS ANGELES CA MOSUNNY   62  56  80 CALM      30.04S FOG
BOISE ID       SUNNY     58  32  37 CALM      30.17F
SEATTLE WA     PTSUNNY   54  48  80 SW10      30.09S
$$

*** WEATHER ACROSS MANITOBA...SASKATCHEWAN AND ONTARIO ***
                ***ONTARIO***

CITY           SKY/WX    TMP DP  RH WIND       PRES   REMARKS
GERALDTON      NOT AVBL
THUNDER BAY    MOSUNNY   37  23  56 NW10      29.90S
SIOUX LOOKOUT  MOSUNNY   30  21  69 CALM      29.88S
TORONTO        PTSUNNY   45  25  45 NW24G33   29.75S
BIG TROUT LK   SUNNY      7  -2  66 NW5       29.94S WCI  -2
PICKLE LAKE    MOSUNNY   23   7  50 CALM      29.88S
DRYDEN         PTSUNNY   37  25  60 W5        29.86F
KENORA         PTSUNNY   43  23  45 S5        29.84F
$$
                *** MANITOBA***

CITY           SKY/WX    TMP DP  RH WIND       PRES   REMARKS
BRANDON        MOSUNNY   48  36  61 SW13      29.83S
DAUPHIN        LGT RAIN  45  37  76 SW10      29.77F
ISLAND LAKE    PTSUNNY   21  10  63 E5        29.88S WCI  15
PILOT MOUND      N/A     41  34  75 SE8         N/A
THE PAS        LGT RAIN  36  34  93 S2        29.70S
THOMPSON       PTSUNNY   23  14  68 VRB8      29.80F WCI  14
WINNIPEG       PTSUNNY   48  32  53 W10       29.84S
LYNN LAKE      CLOUDY    23  23 100 NE6       29.73F WCI  16
CHURCHILL      PTSUNNY    3  -2  78 NW8       30.01R WCI -10
GILLAM         MOSUNNY   12   1  62 NE8       29.92F WCI   1
$$
                ***SASKATCHEWAN***

CITY           SKY/WX    TMP DP  RH WIND       PRES   REMARKS
ESTEVAN        MOSUNNY   55  39  54 W20G26    29.91R
KINDERSLEY     MOSUNNY   50  32  50 NW15      29.98R
LLOYDMINSTER   MOSUNNY   45  30  57 NW17      29.90S
PRINCE ALBERT  NOT AVBL
REGINA         PTSUNNY   48  41  76 NW16      29.93R


USA.gov is the U.S. government's official web portal to all federal, state and local government web resources and services.